Location: Rounton
(54.4000°N, 1.3500°W)
Time: 14:29:37
(UTC+00:00)

Transit 2A Rocket - Pass Details

Date: 03 December 2021
Orbit: 584 x 918 km, 66.7° (Epoch: 17 January)

Event Time Altitude Azimuth Distance (km) Brightness Sun altitude
Rises 10:29:31 0° 260° (W) 3,441 8.3 11.3°
Reaches altitude 10° 10:32:11 10° 269° (W) 2,544 7.5 11.4°
Maximum altitude 10:37:38 36° 335° (NNW) 1,420 6.0 11.6°
Drops below altitude 10° 10:43:15 10° 41° (NE) 2,623 7.5 11.9°
Sets 10:46:02 0° 50° (NE) 3,562 8.2 12.0°
